Regional Weather Roundup
Issued by NWS State College, PA

Home | Current Version | Previous Version | Graphics & Text | Print | Product List | Glossary On
Versions: 1 2 3 4 5 6 7 8 9 10 11 12 13 14 15 16 17 18 19 20 21 22 23 24 25 26 27 28 29 30 31 32 33 34 35 36 37 38 39 40 41 42 43 44 45 46 47 48 49 50
000
ASUS41 KCTP 250610
RWRCTP

REGIONAL WEATHER ROUNDUP
NATIONAL WEATHER SERVICE STATE COLLEGE PA
100 AM EST SUN FEB 25 2018

Note: "fair" indicates few or no clouds below 12,000 feet with no
significant weather and/or obstructions to visibility.

* = STATION THAT DOES NOT REPORT PRECIPITATION /E.G. RAIN...SNOW...ETC/
    THUNDER OR FOG.

PAZ002>004-007>009-013>016-020>023-029>032-250700-
WESTERN PENNSYLVANIA

CITY           SKY/WX    TMP DP  RH WIND       PRES   REMARKS
ERIE           LGT RAIN  47  43  86 SE8       29.85F FOG
MEADVILLE      LGT RAIN  44  43  96 SE8G17    29.84F
FRANKLIN*      RAIN      43  42  97 SE15      29.87F
NEW CASTLE     HVY RAIN  47  47 100 VRB3      29.85F FOG
BEAVER COUNTY  NOT AVBL
BUTLER*        CLOUDY    46  45  96 E10       29.86F
PITTSBURGH INT LGT RAIN  49  47  93 SE7       29.85F
PITTSBURGH     LGT RAIN  48  45  89 SE10      29.86F
INDIANA*       MOCLDY    46  45  93 SE15G23   29.96F
LATROBE        LGT RAIN  48  45  87 SE6G21    29.91F
WASHINGTON CO* RAIN      50  48  93 S6        29.89F
$$

PAZ004>006-010>012-017>019-024>028-033>037-041-042-045-046-049>053-250700-
CENTRAL PENNSYLVANIA

CITY           SKY/WX    TMP DP  RH WIND       PRES   REMARKS
BRADFORD       LGT RAIN  41  40  96 SE13G21   29.93F
DUBOIS         CLOUDY    42  39  89 SE13G28   29.93F
CLEARFIELD     LGT RAIN  43  41  93 E8        30.00F
JOHNSTOWN      LGT RAIN  41  39  93 SE9       29.95F
ALTOONA        LGT RAIN  44  41  89 SE7       30.04F
STATE COLLEGE  CLOUDY    43  41  92 SE6       30.05F
WILLIAMSPORT   RAIN      42  42 100 NE12      30.09F FOG
SELINSGROVE    LGT RAIN  42  42 100 CALM      30.11F FOG
FT INDIANTOWN  DRIZZLE   44  44 100 NE6       30.11F
CAPITAL CITY   LGT RAIN  46  44  93 SE6       30.11F
HARRISBURG     CLOUDY    46  42  86 SE5       30.11F
YORK           LGT RAIN  45  45 100 E5        30.10F FOG
$$

PAZ038>040-043-044-047-048-054-055-060>062-067>071-250700-
EASTERN PENNSYLVANIA

CITY           SKY/WX    TMP DP  RH WIND       PRES   REMARKS
SCRANTON       CLOUDY    42  39  89 VRB3      30.11F
MOUNT POCONO   FOG       36  36 100 E8G18     30.10F VSB 1/4
ALLENTOWN      CLOUDY    44  40  85 E10       30.15F
QUAKERTOWN*    CLOUDY    43  43 100 VRB6      30.15F
READING        CLOUDY    44  44 100 N6        30.12F
LANCASTER      CLOUDY    45  42  89 E8        30.11F
COATESVILLE    CLOUDY    45  43  93 E12       30.14S
POTTSTOWN      CLOUDY    43  42  97 E6        30.15F
BLUE BELL      CLOUDY    43  43 100 E8        30.16F
DOYLESTOWN     LGT RAIN  44  43  96 VRB3      30.14F
WILLOW GROVE   NOT AVBL
NORTH PHILA    CLOUDY    47  43  86 E8        30.17F FOG
PHILADELPHIA   CLOUDY    46  43  89 E7        30.16S
$$




USA.gov is the U.S. government's official web portal to all federal, state and local government web resources and services.